AAL102 KLAX-EGLL

Flight info

Callsign AAL102
Flight time N/A
Altitude 35000
Route OSHNN1 BEALE Q842 WINEN DCT KU69O/N0478F370 DCT KU87Q DCT KU09S DCT KU18U DCT EMLIK DCT 52N100W 56N090W DCT KELMU/N0491F390 DCT TEFFO DCT KAGLY/M084F390 DCT CLAVY DCT 65N050W 65N040W 64N030W 62N020W/M084F410 DCT BALIX/N0485F410 DCT NINEX DCT AKOMU DCT VAMEB DCT NUGRA
Aircraft B772/H-SDE2E3FGHIJ5LORVWXY/LB1D1

Departure

Time 2026-04-21 04:37
Airport Los Angeles International Airport (KLAX)

Arrival

Time N/A
Airport London Heathrow Airport (EGLL)
Time Latitude Longitude Altitude Speed Heading
2026-04-21 04:15 33.94099 -118.41081 97 ft 0 kts 83°
2026-04-21 04:24 33.94099 -118.41088 97 ft 1 kts 83°
2026-04-21 04:24 33.94097 -118.41100 99 ft 1 kts 83°
2026-04-21 04:24 33.94095 -118.41119 98 ft 3 kts 83°
2026-04-21 04:25 33.94093 -118.41140 97 ft 3 kts 83°
2026-04-21 04:25 33.94093 -118.41162 96 ft 3 kts 95°
2026-04-21 04:25 33.94095 -118.41184 96 ft 3 kts 121°
2026-04-21 04:25 33.94108 -118.41198 97 ft 1 kts 173°
2026-04-21 04:28 33.94098 -118.41196 97 ft 8 kts 173°
2026-04-21 04:29 33.94010 -118.41183 98 ft 17 kts 173°
2026-04-21 04:29 33.93888 -118.41165 98 ft 16 kts 173°
2026-04-21 04:29 33.93780 -118.41130 100 ft 16 kts 130°
2026-04-21 04:29 33.93777 -118.40983 98 ft 21 kts 83°
2026-04-21 04:30 33.93798 -118.40789 101 ft 26 kts 83°
2026-04-21 04:30 33.93816 -118.40617 98 ft 19 kts 83°
2026-04-21 04:30 33.93831 -118.40462 99 ft 19 kts 83°
2026-04-21 04:30 33.93847 -118.40309 100 ft 19 kts 83°
2026-04-21 04:31 33.93862 -118.40154 103 ft 19 kts 83°
2026-04-21 04:31 33.93877 -118.40000 101 ft 19 kts 83°
2026-04-21 04:31 33.93893 -118.39846 101 ft 19 kts 83°
2026-04-21 04:31 33.93908 -118.39691 99 ft 19 kts 83°
2026-04-21 04:32 33.93923 -118.39537 99 ft 19 kts 83°
2026-04-21 04:32 33.93941 -118.39383 101 ft 19 kts 83°
2026-04-21 04:32 33.93957 -118.39232 98 ft 19 kts 83°
2026-04-21 04:32 33.93972 -118.39078 98 ft 19 kts 83°
2026-04-21 04:33 33.93983 -118.38974 99 ft 0 kts 83°
2026-04-21 04:33 33.93987 -118.38927 98 ft 15 kts 83°
2026-04-21 04:33 33.94003 -118.38774 98 ft 20 kts 83°
2026-04-21 04:33 33.94020 -118.38607 100 ft 20 kts 83°
2026-04-21 04:34 33.94037 -118.38438 102 ft 21 kts 83°
2026-04-21 04:34 33.94055 -118.38259 103 ft 22 kts 83°
2026-04-21 04:34 33.94074 -118.38074 97 ft 16 kts 82°
2026-04-21 04:34 33.94049 -118.38000 97 ft 10 kts 160°
2026-04-21 04:35 33.93984 -118.38033 101 ft 11 kts 243°
2026-04-21 04:35 33.93973 -118.38124 98 ft 11 kts 259°
2026-04-21 04:35 33.93971 -118.38147 99 ft 0 kts 263°
2026-04-21 04:36 33.93965 -118.38202 103 ft 28 kts 263°
2026-04-21 04:36 33.93909 -118.38754 100 ft 104 kts 262°
2026-04-21 04:37 33.93791 -118.39897 105 ft 169 kts 263°
2026-04-21 04:37 33.93632 -118.41405 658 ft 186 kts 262°
2026-04-21 04:37 33.93478 -118.43014 1437 ft 199 kts 264°
2026-04-21 04:37 33.93313 -118.44676 2257 ft 197 kts 264°
2026-04-21 04:38 33.93129 -118.46316 2693 ft 204 kts 257°
2026-04-21 04:38 33.92461 -118.47852 2791 ft 219 kts 219°
2026-04-21 04:38 33.91008 -118.48554 2956 ft 238 kts 186°
2026-04-21 04:38 33.89309 -118.48657 3117 ft 252 kts 184°
2026-04-21 04:39 33.87534 -118.48885 3458 ft 261 kts 189°
2026-04-21 04:39 33.85756 -118.49221 4115 ft 261 kts 190°
2026-04-21 04:39 33.83975 -118.49564 4874 ft 261 kts 190°
2026-04-21 04:39 33.82172 -118.49903 5427 ft 264 kts 189°
2026-04-21 04:40 33.80364 -118.50231 6149 ft 262 kts 189°
2026-04-21 04:40 33.78555 -118.50551 6768 ft 263 kts 188°
2026-04-21 04:40 33.76737 -118.50867 7388 ft 264 kts 189°
2026-04-21 04:40 33.74912 -118.51184 8015 ft 265 kts 188°
2026-04-21 04:41 33.73084 -118.51498 8605 ft 266 kts 188°
2026-04-21 04:41 33.71236 -118.51568 8999 ft 268 kts 172°
2026-04-21 04:41 33.69510 -118.50648 9349 ft 282 kts 140°
2026-04-21 04:41 33.68466 -118.48644 9956 ft 291 kts 109°
2026-04-21 04:42 33.68081 -118.46251 10287 ft 294 kts 106°
2026-04-21 04:42 33.67431 -118.43893 10372 ft 303 kts 120°
2026-04-21 04:42 33.66452 -118.41610 10460 ft 313 kts 121°
2026-04-21 04:42 33.65541 -118.39169 10548 ft 327 kts 114°
2026-04-21 04:43 33.64795 -118.36505 10656 ft 344 kts 110°
2026-04-21 04:43 33.64284 -118.33646 10731 ft 358 kts 100°
2026-04-21 04:43 33.64271 -118.30580 10910 ft 377 kts 87°
2026-04-21 04:43 33.64647 -118.27436 11083 ft 385 kts 84°
2026-04-21 04:44 33.65026 -118.24232 11228 ft 390 kts 88°
2026-04-21 04:44 33.65151 -118.22076 11402 ft 392 kts 90°
2026-04-21 04:44 33.65410 -118.17707 12355 ft 392 kts 86°
2026-04-21 04:44 33.65873 -118.14470 12584 ft 399 kts 78°
2026-04-21 04:45 33.66481 -118.12365 12680 ft 409 kts 64°
2026-04-21 04:45 33.68313 -118.09736 13424 ft 417 kts 38°
2026-04-21 04:45 33.70886 -118.08150 14201 ft 419 kts 14°
2026-04-21 04:45 33.73726 -118.07477 14633 ft 417 kts
2026-04-21 04:46 33.76593 -118.06761 14727 ft 425 kts 18°
2026-04-21 04:46 33.79161 -118.04978 15095 ft 432 kts 44°
2026-04-21 04:46 33.81188 -118.02345 15656 ft 427 kts 51°
2026-04-21 04:46 33.83117 -117.99616 15909 ft 431 kts 49°
2026-04-21 04:47 33.85377 -117.97217 16061 ft 441 kts 29°
2026-04-21 04:47 33.88251 -117.95971 16798 ft 437 kts 12°
2026-04-21 04:47 33.91235 -117.95273 17072 ft 439 kts 10°
2026-04-21 04:47 33.94241 -117.94446 17147 ft 446 kts 18°
2026-04-21 04:48 33.96949 -117.92596 17589 ft 451 kts 44°
2026-04-21 04:48 33.98884 -117.89691 18342 ft 444 kts 65°
2026-04-21 04:48 34.00135 -117.86339 18739 ft 438 kts 71°
2026-04-21 04:48 34.01371 -117.82953 18818 ft 446 kts 65°
2026-04-21 04:49 34.03296 -117.79963 19077 ft 461 kts 41°
2026-04-21 04:49 34.06019 -117.77939 19745 ft 461 kts 26°
2026-04-21 04:49 34.08950 -117.76513 20173 ft 460 kts 20°
2026-04-21 04:49 34.11952 -117.75178 20342 ft 463 kts 23°
2026-04-21 04:50 34.14868 -117.73478 20449 ft 466 kts 32°
2026-04-21 04:50 34.17570 -117.71298 20643 ft 467 kts 39°
2026-04-21 04:50 34.20023 -117.68752 20871 ft 465 kts 48°
2026-04-21 04:50 34.22031 -117.65676 21347 ft 466 kts 60°
2026-04-21 04:51 34.23697 -117.62357 21873 ft 459 kts 63°
2026-04-21 04:51 34.25316 -117.59038 22106 ft 460 kts 61°
2026-04-21 04:51 34.27228 -117.55899 22156 ft 472 kts 47°
2026-04-21 04:51 34.29792 -117.53361 22638 ft 476 kts 37°
2026-04-21 04:52 34.32507 -117.51122 22930 ft 473 kts 36°
2026-04-21 04:52 34.35189 -117.48803 22984 ft 474 kts 41°
2026-04-21 04:52 34.37446 -117.45882 23134 ft 478 kts 58°
2026-04-21 04:52 34.39169 -117.42497 23617 ft 469 kts 63°
2026-04-21 04:53 34.40796 -117.39070 23682 ft 470 kts 62°
2026-04-21 04:53 34.42609 -117.35753 23688 ft 475 kts 55°
2026-04-21 04:53 34.44761 -117.32687 23691 ft 479 kts 49°
2026-04-21 04:53 34.47110 -117.29780 23893 ft 486 kts 47°
2026-04-21 04:54 34.49487 -117.26933 24422 ft 487 kts 47°
2026-04-21 04:54 34.51897 -117.23974 24906 ft 489 kts 48°
2026-04-21 04:54 34.54225 -117.20981 25174 ft 496 kts 49°
2026-04-21 04:54 34.56574 -117.17817 25457 ft 500 kts 50°
2026-04-21 04:55 34.58825 -117.14673 25945 ft 500 kts 51°
2026-04-21 04:55 34.61077 -117.11458 26429 ft 501 kts 51°
2026-04-21 04:55 34.63328 -117.08213 26790 ft 504 kts 51°
2026-04-21 04:55 34.65593 -117.04946 27126 ft 508 kts 51°
2026-04-21 04:56 34.67888 -117.01652 27475 ft 511 kts 51°
2026-04-21 04:56 34.70197 -116.98361 27824 ft 513 kts 51°
2026-04-21 04:56 34.72524 -116.95059 28159 ft 515 kts 50°
2026-04-21 04:56 34.74870 -116.91742 28505 ft 518 kts 50°
2026-04-21 04:57 34.77222 -116.88419 28791 ft 520 kts 50°
2026-04-21 04:57 34.79557 -116.85120 29107 ft 521 kts 51°
2026-04-21 04:57 34.81917 -116.81786 29491 ft 520 kts 51°
2026-04-21 04:57 34.84312 -116.78394 29754 ft 522 kts 51°
2026-04-21 04:58 34.86679 -116.75032 29987 ft 524 kts 51°
2026-04-21 04:58 34.89054 -116.71653 30216 ft 525 kts 51°
2026-04-21 04:58 34.91424 -116.68274 30474 ft 525 kts 51°
2026-04-21 04:58 34.93792 -116.64893 30749 ft 524 kts 51°
2026-04-21 04:59 34.96123 -116.61560 31017 ft 523 kts 51°
2026-04-21 04:59 34.98513 -116.58141 31256 ft 523 kts 51°
2026-04-21 04:59 35.00876 -116.54759 31499 ft 523 kts 51°
2026-04-21 04:59 35.03230 -116.51388 31761 ft 523 kts 51°
2026-04-21 05:00 35.05555 -116.48055 32001 ft 522 kts 51°
2026-04-21 05:00 35.07912 -116.44673 32228 ft 522 kts 51°
2026-04-21 05:00 35.12615 -116.37914 32725 ft 522 kts 51°
2026-04-21 05:01 35.14961 -116.34538 32983 ft 521 kts 51°
2026-04-21 05:01 35.17306 -116.31160 33269 ft 521 kts 50°
2026-04-21 05:01 35.19648 -116.27785 33535 ft 521 kts 50°
2026-04-21 05:01 35.21996 -116.24397 33757 ft 521 kts 50°
2026-04-21 05:02 35.24334 -116.21018 34005 ft 520 kts 50°
2026-04-21 05:02 35.26670 -116.17641 34280 ft 519 kts 50°
2026-04-21 05:02 35.28995 -116.14277 34546 ft 518 kts 51°
2026-04-21 05:02 35.31319 -116.10913 34799 ft 517 kts 51°
2026-04-21 05:03 35.35985 -116.04148 34900 ft 520 kts 51°
2026-04-21 05:03 35.40629 -115.97396 34899 ft 516 kts 51°
2026-04-21 05:04 35.45246 -115.90673 34903 ft 514 kts 51°
2026-04-21 05:04 35.49812 -115.84008 34927 ft 513 kts 51°
2026-04-21 05:05 35.54397 -115.77300 34932 ft 513 kts 51°
2026-04-21 05:05 35.58981 -115.70582 34946 ft 513 kts 51°
2026-04-21 05:06 35.63569 -115.63845 34948 ft 514 kts 51°
2026-04-21 05:06 35.68161 -115.57091 34949 ft 514 kts 51°
2026-04-21 05:07 35.72744 -115.50337 34962 ft 514 kts 51°
2026-04-21 05:07 35.77289 -115.43624 34954 ft 514 kts 51°
2026-04-21 05:08 35.81862 -115.36859 34965 ft 514 kts 51°
2026-04-21 05:08 35.86432 -115.30082 34981 ft 513 kts 51°
2026-04-21 05:09 35.90973 -115.23334 34998 ft 509 kts 51°
2026-04-21 05:09 35.95487 -115.16616 34992 ft 507 kts 51°
2026-04-21 05:10 35.99978 -115.09921 34994 ft 506 kts 51°
2026-04-21 05:10 36.04455 -115.03229 34961 ft 505 kts 51°
2026-04-21 05:11 36.08936 -114.96514 34939 ft 505 kts 51°
2026-04-21 05:11 36.13407 -114.89808 34888 ft 505 kts 51°
2026-04-21 05:12 36.17991 -114.83337 34862 ft 497 kts 45°
2026-04-21 05:12 36.23518 -114.78402 34878 ft 495 kts 21°
2026-04-21 05:13 36.29898 -114.75474 34851 ft 485 kts 22°
2026-04-21 05:13 36.35844 -114.71589 34847 ft 485 kts 31°
2026-04-21 05:14 36.41656 -114.67137 34841 ft 496 kts 30°
2026-04-21 05:14 36.47718 -114.62882 34838 ft 504 kts 28°
2026-04-21 05:15 36.53979 -114.58785 34825 ft 510 kts 27°
2026-04-21 05:15 36.60274 -114.54662 34832 ft 512 kts 27°
2026-04-21 05:16 36.66544 -114.50462 34830 ft 512 kts 28°
2026-04-21 05:16 36.72783 -114.46204 34833 ft 510 kts 30°
2026-04-21 05:17 36.78818 -114.41610 34836 ft 507 kts 32°
2026-04-21 05:17 36.84748 -114.36827 34849 ft 507 kts 33°
2026-04-21 05:18 36.90671 -114.32062 34862 ft 507 kts 32°
2026-04-21 05:18 36.96635 -114.27338 34864 ft 508 kts 32°
2026-04-21 05:19 37.02586 -114.22658 34892 ft 509 kts 32°
2026-04-21 05:19 37.08592 -114.17930 34882 ft 511 kts 32°
2026-04-21 05:20 37.14613 -114.13166 34892 ft 512 kts 32°
2026-04-21 05:20 37.20630 -114.08389 34896 ft 512 kts 33°
2026-04-21 05:21 37.26648 -114.03607 34897 ft 512 kts 33°
2026-04-21 05:21 37.32679 -113.98807 34911 ft 513 kts 33°
2026-04-21 05:22 37.38712 -113.93992 34919 ft 514 kts 33°
2026-04-21 05:22 37.44746 -113.89165 34928 ft 514 kts 33°
2026-04-21 05:23 37.50780 -113.84330 34930 ft 514 kts 33°
2026-04-21 05:23 37.56776 -113.79520 34939 ft 514 kts 34°
2026-04-21 05:24 37.62807 -113.74669 34934 ft 514 kts 34°
2026-04-21 05:24 37.68840 -113.69810 34936 ft 514 kts 34°
2026-04-21 05:25 37.74851 -113.64957 34942 ft 513 kts 34°
2026-04-21 05:25 37.80864 -113.60091 34950 ft 513 kts 34°
2026-04-21 05:26 37.86870 -113.55224 34943 ft 513 kts 34°
2026-04-21 05:26 37.92942 -113.50452 34941 ft 514 kts 31°
2026-04-21 05:27 37.99310 -113.46526 34933 ft 503 kts 21°
2026-04-21 05:27 38.05938 -113.43962 34946 ft 495 kts 13°
2026-04-21 05:28 38.12725 -113.41957 34942 ft 506 kts 14°
2026-04-21 05:28 38.19585 -113.39613 34954 ft 514 kts 17°
2026-04-21 05:29 38.26450 -113.36891 34964 ft 517 kts 18°
2026-04-21 05:29 38.33292 -113.34034 34991 ft 518 kts 18°
2026-04-21 05:30 38.40139 -113.31199 35005 ft 517 kts 18°
2026-04-21 05:30 38.46973 -113.28421 35017 ft 514 kts 18°
2026-04-21 05:31 38.53750 -113.25687 35014 ft 512 kts 18°
2026-04-21 05:31 38.60545 -113.22941 34999 ft 511 kts 18°
2026-04-21 05:32 38.67326 -113.20189 34937 ft 511 kts 18°
2026-04-21 05:32 38.72951 -113.17895 34939 ft 511 kts 18°
2026-04-21 05:33 38.79730 -113.15125 34942 ft 512 kts 18°
2026-04-21 05:33 38.86519 -113.12347 34932 ft 512 kts 18°
2026-04-21 05:34 38.93309 -113.09564 34915 ft 512 kts 18°
2026-04-21 05:34 39.00090 -113.06779 34926 ft 511 kts 18°
2026-04-21 05:35 39.06856 -113.03996 34921 ft 510 kts 18°
2026-04-21 05:35 39.13610 -113.01212 34912 ft 509 kts 18°
2026-04-21 05:36 39.20304 -112.98445 34907 ft 509 kts 18°
2026-04-21 05:36 39.27043 -112.95655 34913 ft 508 kts 18°
2026-04-21 05:37 39.33777 -112.92862 34904 ft 508 kts 18°
2026-04-21 05:37 39.40511 -112.90063 34935 ft 509 kts 18°
2026-04-21 05:38 39.47249 -112.87256 34940 ft 509 kts 18°
2026-04-21 05:38 39.53997 -112.84440 34936 ft 509 kts 18°
2026-04-21 05:39 39.60738 -112.81621 34923 ft 509 kts 18°
2026-04-21 05:39 39.67477 -112.78796 34895 ft 509 kts 18°
2026-04-21 05:40 39.74198 -112.75972 34906 ft 507 kts 18°
2026-04-21 05:40 39.80899 -112.73151 34891 ft 506 kts 18°
2026-04-21 05:41 39.87585 -112.70333 34903 ft 505 kts 18°
2026-04-21 05:41 39.94229 -112.67526 34907 ft 505 kts 18°
2026-04-21 05:42 40.00915 -112.64695 34900 ft 506 kts 18°
2026-04-21 05:42 40.07653 -112.61838 34900 ft 506 kts 18°
2026-04-21 05:43 40.14304 -112.59010 34904 ft 507 kts 18°
2026-04-21 05:43 40.21015 -112.56150 34899 ft 507 kts 18°
2026-04-21 05:44 40.27727 -112.53283 34880 ft 507 kts 18°
2026-04-21 05:44 40.34425 -112.50417 34896 ft 507 kts 18°
2026-04-21 05:45 40.41135 -112.47540 34945 ft 507 kts 18°
2026-04-21 05:45 40.47837 -112.44660 34981 ft 506 kts 18°
2026-04-21 05:46 40.54513 -112.41787 34993 ft 504 kts 18°
2026-04-21 05:46 40.61169 -112.38917 34999 ft 503 kts 18°
2026-04-21 05:47 40.67809 -112.36047 35001 ft 502 kts 18°
2026-04-21 05:47 40.74452 -112.33169 34980 ft 502 kts 18°
2026-04-21 05:48 40.81102 -112.30282 34920 ft 503 kts 18°
2026-04-21 05:48 40.87761 -112.27383 34912 ft 504 kts 18°
2026-04-21 05:49 40.94389 -112.24493 34903 ft 505 kts 18°
2026-04-21 05:49 41.01069 -112.21575 34928 ft 506 kts 18°
2026-04-21 05:50 41.07755 -112.18647 34961 ft 506 kts 18°
2026-04-21 05:50 41.14449 -112.15709 34964 ft 506 kts 18°
2026-04-21 05:51 41.21140 -112.12767 34975 ft 506 kts 18°
2026-04-21 05:51 41.27807 -112.09829 34980 ft 504 kts 18°
2026-04-21 05:52 41.34450 -112.06894 34950 ft 502 kts 18°
2026-04-21 05:52 41.41078 -112.03961 34937 ft 501 kts 18°
2026-04-21 05:53 41.47697 -112.01026 34921 ft 501 kts 18°
2026-04-21 05:53 41.54233 -111.97843 34979 ft 497 kts 22°
2026-04-21 05:54 41.60479 -111.94127 34965 ft 486 kts 25°
2026-04-21 05:54 41.66451 -111.90030 34969 ft 478 kts 27°
2026-04-21 05:55 41.72405 -111.85870 35012 ft 488 kts 26°
2026-04-21 05:55 41.78563 -111.81806 35004 ft 498 kts 25°
2026-04-21 05:56 41.84881 -111.77787 35003 ft 505 kts 24°
2026-04-21 05:56 41.91215 -111.73775 34985 ft 501 kts 24°
2026-04-21 05:57 41.97502 -111.69760 34969 ft 500 kts 24°
2026-04-21 05:57 42.03777 -111.65727 34962 ft 500 kts 25°
2026-04-21 05:58 42.10052 -111.61682 34944 ft 501 kts 25°
2026-04-21 05:58 42.16304 -111.57646 34951 ft 502 kts 24°
2026-04-21 05:59 42.22604 -111.53567 34957 ft 503 kts 24°
2026-04-21 06:00 42.32071 -111.47426 34956 ft 504 kts 25°
2026-04-21 06:00 42.38398 -111.43308 34971 ft 504 kts 24°
2026-04-21 06:01 42.44729 -111.39180 34971 ft 505 kts 24°
2026-04-21 06:01 42.51065 -111.35039 34973 ft 505 kts 24°
2026-04-21 06:02 42.57401 -111.30890 35007 ft 505 kts 24°
2026-04-21 06:02 42.63731 -111.26733 35048 ft 505 kts 24°
2026-04-21 06:03 42.70014 -111.22597 35054 ft 505 kts 24°
2026-04-21 06:03 42.76334 -111.18430 35068 ft 504 kts 24°
2026-04-21 06:04 42.82645 -111.14259 35061 ft 504 kts 24°
2026-04-21 06:04 42.88936 -111.10090 35072 ft 501 kts 24°
2026-04-21 06:05 42.95192 -111.05935 35003 ft 499 kts 24°
2026-04-21 06:05 43.01425 -111.01787 35009 ft 498 kts 24°
2026-04-21 06:06 43.07651 -110.97633 35028 ft 497 kts 24°
2026-04-21 06:06 43.13876 -110.93470 35030 ft 498 kts 24°
2026-04-21 06:07 43.20111 -110.89294 35029 ft 498 kts 24°
2026-04-21 06:07 43.26287 -110.85143 35058 ft 498 kts 24°
2026-04-21 06:08 43.32552 -110.80926 35047 ft 499 kts 24°
2026-04-21 06:08 43.38746 -110.76748 35054 ft 500 kts 24°
2026-04-21 06:09 43.44985 -110.72531 35061 ft 500 kts 24°
2026-04-21 06:09 43.51223 -110.68294 35075 ft 499 kts 23°
2026-04-21 06:10 43.57438 -110.64071 35065 ft 497 kts 23°
2026-04-21 06:10 43.63642 -110.59852 35079 ft 496 kts 23°
2026-04-21 06:11 43.69828 -110.55631 35074 ft 496 kts 23°
2026-04-21 06:11 43.76029 -110.51388 35092 ft 497 kts 23°
2026-04-21 06:12 43.82237 -110.47128 35070 ft 498 kts 23°
2026-04-21 06:12 43.88439 -110.42868 35076 ft 498 kts 23°
2026-04-21 06:13 43.94643 -110.38594 35080 ft 498 kts 23°
2026-04-21 06:13 44.00846 -110.34309 35097 ft 498 kts 23°
2026-04-21 06:14 44.07026 -110.30029 35086 ft 496 kts 23°
2026-04-21 06:14 44.13195 -110.25750 35100 ft 495 kts 23°
2026-04-21 06:15 44.19357 -110.21466 35101 ft 495 kts 23°
2026-04-21 06:15 44.25482 -110.17196 35095 ft 495 kts 23°
2026-04-21 06:16 44.31639 -110.12892 35114 ft 495 kts 23°
2026-04-21 06:16 44.37806 -110.08572 35110 ft 495 kts 22°
2026-04-21 06:17 44.43968 -110.04248 35090 ft 496 kts 22°
2026-04-21 06:17 44.49093 -110.00635 35090 ft 496 kts 23°
2026-04-21 06:18 44.54998 -109.95900 35084 ft 485 kts 29°
2026-04-21 06:18 44.60483 -109.90480 35079 ft 482 kts 32°
2026-04-21 06:19 44.65944 -109.84804 35061 ft 493 kts 32°
2026-04-21 06:19 44.71592 -109.79178 35047 ft 501 kts 31°
2026-04-21 06:20 44.77368 -109.73599 35012 ft 504 kts 30°
2026-04-21 06:20 44.83111 -109.68071 35002 ft 504 kts 30°
2026-04-21 06:21 44.88890 -109.62475 34963 ft 502 kts 30°
2026-04-21 06:21 44.94632 -109.56885 34947 ft 501 kts 30°
2026-04-21 06:22 45.00359 -109.51291 34938 ft 500 kts 30°
2026-04-21 06:22 45.06072 -109.45695 34920 ft 498 kts 30°
2026-04-21 06:23 45.11755 -109.40113 34909 ft 496 kts 30°
2026-04-21 06:23 45.17408 -109.34552 34900 ft 494 kts 30°
2026-04-21 06:24 45.23047 -109.28993 34911 ft 494 kts 30°
2026-04-21 06:24 45.28697 -109.23408 34906 ft 495 kts 30°
2026-04-21 06:25 45.34359 -109.17798 34906 ft 496 kts 30°
2026-04-21 06:25 45.40031 -109.12160 34885 ft 498 kts 30°
2026-04-21 06:26 45.45680 -109.06532 34878 ft 499 kts 30°
2026-04-21 06:26 45.51406 -109.00815 34889 ft 499 kts 30°
2026-04-21 06:27 45.57048 -108.95163 34875 ft 498 kts 30°
2026-04-21 06:27 45.62706 -108.89479 34874 ft 497 kts 29°
2026-04-21 06:28 45.68353 -108.83797 34880 ft 496 kts 29°
2026-04-21 06:28 45.73997 -108.78107 34874 ft 496 kts 29°
2026-04-21 06:29 45.79641 -108.72402 34916 ft 496 kts 29°
2026-04-21 06:29 45.85276 -108.66685 34925 ft 495 kts 29°
2026-04-21 06:30 45.90897 -108.60971 34910 ft 496 kts 29°
2026-04-21 06:30 45.96524 -108.55239 34901 ft 496 kts 29°
2026-04-21 06:31 46.02123 -108.49522 34897 ft 496 kts 29°
2026-04-21 06:31 46.07777 -108.43727 34878 ft 495 kts 29°
2026-04-21 06:32 46.13389 -108.37962 34857 ft 496 kts 29°
2026-04-21 06:32 46.19006 -108.32181 34854 ft 496 kts 29°
2026-04-21 06:33 46.24581 -108.26429 34861 ft 496 kts 29°
2026-04-21 06:33 46.30193 -108.20621 34865 ft 495 kts 28°
2026-04-21 06:34 46.35799 -108.14803 34861 ft 495 kts 28°
2026-04-21 06:34 46.41398 -108.08978 34860 ft 496 kts 28°
2026-04-21 06:35 46.47001 -108.03139 34853 ft 496 kts 28°
2026-04-21 06:35 46.52523 -107.97185 34862 ft 489 kts 31°
2026-04-21 06:36 46.57693 -107.90852 34852 ft 483 kts 34°
2026-04-21 06:36 46.62571 -107.84219 34866 ft 477 kts 36°
2026-04-21 06:37 46.67447 -107.77584 34883 ft 488 kts 35°
2026-04-21 06:37 46.72537 -107.70906 34890 ft 497 kts 34°
2026-04-21 06:38 46.77752 -107.64170 34865 ft 503 kts 34°
2026-04-21 06:38 46.82990 -107.57381 34866 ft 504 kts 34°
2026-04-21 06:39 46.88215 -107.50563 34890 ft 503 kts 34°
2026-04-21 06:39 46.93416 -107.43742 34865 ft 502 kts 34°
2026-04-21 06:40 46.98608 -107.36920 34877 ft 500 kts 34°
2026-04-21 06:40 47.03783 -107.30111 34869 ft 499 kts 34°
2026-04-21 06:41 47.08938 -107.23314 34879 ft 498 kts 34°
2026-04-21 06:41 47.14089 -107.16501 34901 ft 498 kts 34°
2026-04-21 06:42 47.19241 -107.09668 34908 ft 501 kts 34°
2026-04-21 06:42 47.24421 -107.02780 34881 ft 502 kts 34°
2026-04-21 06:43 47.29568 -106.95914 34894 ft 502 kts 34°
2026-04-21 06:43 47.34740 -106.88992 34885 ft 502 kts 34°
2026-04-21 06:44 47.39911 -106.82055 34909 ft 502 kts 34°
2026-04-21 06:44 47.45071 -106.75114 34900 ft 502 kts 34°
2026-04-21 06:45 47.50230 -106.68154 34893 ft 502 kts 34°
2026-04-21 06:45 47.55385 -106.61182 34884 ft 502 kts 34°
2026-04-21 06:46 47.60524 -106.54212 34893 ft 502 kts 34°
2026-04-21 06:46 47.65680 -106.47199 34890 ft 502 kts 34°
2026-04-21 06:47 47.70819 -106.40190 34891 ft 502 kts 34°
2026-04-21 06:47 47.75945 -106.33175 34886 ft 500 kts 35°
2026-04-21 06:48 47.81039 -106.26188 34889 ft 501 kts 35°
2026-04-21 06:48 47.86130 -106.19182 34890 ft 497 kts 35°
2026-04-21 06:49 47.91196 -106.12193 34890 ft 496 kts 35°
2026-04-21 06:49 47.96272 -106.05174 34919 ft 499 kts 35°
2026-04-21 06:50 48.01352 -105.98131 34903 ft 501 kts 35°
2026-04-21 06:50 48.06441 -105.91064 34904 ft 497 kts 35°
2026-04-21 06:51 48.11497 -105.84022 34900 ft 496 kts 35°
2026-04-21 06:51 48.16539 -105.76982 34896 ft 494 kts 35°
2026-04-21 06:52 48.21563 -105.69947 34914 ft 496 kts 35°
2026-04-21 06:52 48.26581 -105.62901 34917 ft 494 kts 35°
2026-04-21 06:53 48.31577 -105.55862 34915 ft 490 kts 35°
2026-04-21 06:53 48.36545 -105.48843 34918 ft 489 kts 35°
2026-04-21 06:54 48.41491 -105.41839 34926 ft 487 kts 35°
2026-04-21 06:54 48.46402 -105.34866 34938 ft 487 kts 35°
2026-04-21 06:55 48.51317 -105.27864 34947 ft 485 kts 36°
2026-04-21 06:55 48.56184 -105.20909 34926 ft 478 kts 36°
2026-04-21 06:56 48.61001 -105.14006 34918 ft 475 kts 36°
2026-04-21 06:56 48.65791 -105.07130 34936 ft 475 kts 36°
2026-04-21 06:57 48.70566 -105.00256 34943 ft 474 kts 36°
2026-04-21 06:57 48.75327 -104.93384 34932 ft 470 kts 36°
2026-04-21 06:58 48.80026 -104.86580 34935 ft 465 kts 36°
2026-04-21 06:58 48.84647 -104.79865 34920 ft 460 kts 36°
2026-04-21 06:59 48.89247 -104.73162 34927 ft 456 kts 36°
2026-04-21 06:59 48.93806 -104.66505 34920 ft 452 kts 36°
2026-04-21 07:00 48.98334 -104.59880 34939 ft 449 kts 37°
2026-04-21 07:00 49.02798 -104.53337 34926 ft 446 kts 37°
2026-04-21 07:01 49.07253 -104.46781 34942 ft 444 kts 37°
2026-04-21 07:01 49.13893 -104.36976 34922 ft 440 kts 37°
2026-04-21 07:02 49.18278 -104.30480 34916 ft 438 kts 37°
2026-04-21 07:02 49.22641 -104.24000 34925 ft 436 kts 37°
2026-04-21 07:03 49.26252 -104.18626 34921 ft 434 kts 37°
2026-04-21 07:03 49.30568 -104.12187 34925 ft 433 kts 37°
2026-04-21 07:04 49.34872 -104.05747 34940 ft 431 kts 37°
2026-04-21 07:04 49.39159 -103.99320 34925 ft 430 kts 37°
2026-04-21 07:05 49.43419 -103.92914 34938 ft 428 kts 37°
2026-04-21 07:05 49.47665 -103.86514 34929 ft 427 kts 37°
2026-04-21 07:06 49.51898 -103.80116 34923 ft 426 kts 37°
2026-04-21 07:06 49.56079 -103.73781 34936 ft 424 kts 37°
2026-04-21 07:07 49.60280 -103.67399 34935 ft 423 kts 37°
2026-04-21 07:07 49.64496 -103.60979 34948 ft 422 kts 38°
2026-04-21 07:08 49.68639 -103.54656 34939 ft 422 kts 38°
2026-04-21 07:08 49.72834 -103.48235 34928 ft 421 kts 38°
2026-04-21 07:09 49.76983 -103.41865 34936 ft 420 kts 38°
2026-04-21 07:09 49.81094 -103.35540 34928 ft 419 kts 38°
2026-04-21 07:10 49.85219 -103.29176 34921 ft 418 kts 38°
2026-04-21 07:10 49.89334 -103.22813 34961 ft 417 kts 38°
2026-04-21 07:11 49.93433 -103.16459 34940 ft 416 kts 38°
2026-04-21 07:11 49.97526 -103.10095 34929 ft 415 kts 38°
2026-04-21 07:12 50.01574 -103.03787 34941 ft 414 kts 38°
2026-04-21 07:12 50.05635 -102.97442 34940 ft 413 kts 38°
2026-04-21 07:13 50.09684 -102.91101 34932 ft 412 kts 38°
2026-04-21 07:13 50.13717 -102.84768 34942 ft 411 kts 38°
2026-04-21 07:14 50.17737 -102.78441 34960 ft 410 kts 38°
2026-04-21 07:14 50.21753 -102.72102 34951 ft 410 kts 38°
2026-04-21 07:15 50.25759 -102.65762 34943 ft 409 kts 38°
2026-04-21 07:15 50.29755 -102.59422 34954 ft 408 kts 38°
2026-04-21 07:16 50.33733 -102.53098 34972 ft 407 kts 38°
2026-04-21 07:16 50.37715 -102.46840 34980 ft 412 kts 37°
2026-04-21 07:17 50.41987 -102.40662 34979 ft 426 kts 35°
2026-04-21 07:17 50.46476 -102.34295 34980 ft 442 kts 36°
2026-04-21 07:18 50.51001 -102.27773 34959 ft 441 kts 36°
2026-04-21 07:18 50.55485 -102.21215 34962 ft 440 kts 36°
2026-04-21 07:19 50.59955 -102.14654 34983 ft 440 kts 36°
2026-04-21 07:19 50.64433 -102.08073 34968 ft 440 kts 36°
2026-04-21 07:20 50.68900 -102.01492 34973 ft 439 kts 36°
2026-04-21 07:20 50.73349 -101.94922 35000 ft 439 kts 36°
2026-04-21 07:21 50.77810 -101.88322 34970 ft 438 kts 36°
2026-04-21 07:21 50.82247 -101.81732 34966 ft 436 kts 36°
2026-04-21 07:22 50.86666 -101.75159 34965 ft 440 kts 36°
2026-04-21 07:22 50.91109 -101.68526 34977 ft 438 kts 36°
2026-04-21 07:23 50.95536 -101.61897 34972 ft 437 kts 36°
2026-04-21 07:23 50.99942 -101.55282 34978 ft 436 kts 36°
2026-04-21 07:24 51.04359 -101.48638 34981 ft 437 kts 36°
2026-04-21 07:24 51.08760 -101.41996 34997 ft 436 kts 37°
2026-04-21 07:25 51.13152 -101.35348 34984 ft 435 kts 37°
2026-04-21 07:25 51.17507 -101.28741 34994 ft 440 kts 37°
2026-04-21 07:26 51.21969 -101.21960 34975 ft 443 kts 37°
2026-04-21 07:26 51.26412 -101.15173 34968 ft 442 kts 37°
2026-04-21 07:27 51.30874 -101.08345 34969 ft 446 kts 37°
2026-04-21 07:27 51.35367 -101.01449 34969 ft 444 kts 37°
2026-04-21 07:28 51.39782 -100.94653 34954 ft 442 kts 37°
2026-04-21 07:28 51.44195 -100.87838 34958 ft 440 kts 37°
2026-04-21 07:29 51.48599 -100.81019 34946 ft 438 kts 37°
2026-04-21 07:29 51.52947 -100.74269 34943 ft 436 kts 37°
2026-04-21 07:30 51.57303 -100.67489 34964 ft 435 kts 37°
2026-04-21 07:30 51.61648 -100.60713 34935 ft 435 kts 38°
2026-04-21 07:31 51.65983 -100.53931 34946 ft 433 kts 38°
2026-04-21 07:31 51.70289 -100.47168 34936 ft 432 kts 38°
2026-04-21 07:32 51.74594 -100.40389 34948 ft 431 kts 38°
2026-04-21 07:32 51.78886 -100.33613 34938 ft 430 kts 38°
2026-04-21 07:33 51.83163 -100.26843 34936 ft 430 kts 38°
2026-04-21 07:33 51.87403 -100.20114 34955 ft 430 kts 38°
2026-04-21 07:34 51.91669 -100.13323 34952 ft 429 kts 38°
2026-04-21 07:34 51.95921 -100.06534 34949 ft 429 kts 38°
2026-04-21 07:35 52.00154 -99.99703 34947 ft 430 kts 41°
2026-04-21 07:35 52.03969 -99.91989 34967 ft 448 kts 48°
2026-04-21 07:36 52.07719 -99.83692 34977 ft 464 kts 48°
2026-04-21 07:36 52.11740 -99.75282 34967 ft 478 kts 46°
2026-04-21 07:37 52.15946 -99.66760 34970 ft 493 kts 46°
2026-04-21 07:37 52.20267 -99.57898 34964 ft 505 kts 47°
2026-04-21 07:38 52.24633 -99.48768 34964 ft 514 kts 47°
2026-04-21 07:38 52.29022 -99.39477 34956 ft 516 kts 47°
2026-04-21 07:39 52.33396 -99.30175 34954 ft 515 kts 47°
2026-04-21 07:39 52.37726 -99.20957 34949 ft 513 kts 47°
2026-04-21 07:40 52.42072 -99.11692 34972 ft 512 kts 47°
2026-04-21 07:40 52.46400 -99.02436 34945 ft 511 kts 47°
2026-04-21 07:41 52.50723 -98.93157 34958 ft 512 kts 47°
2026-04-21 07:41 52.55036 -98.83865 34947 ft 512 kts 47°
2026-04-21 07:42 52.59353 -98.74530 34947 ft 512 kts 48°
2026-04-21 07:42 52.63633 -98.65240 34949 ft 512 kts 48°
2026-04-21 07:43 52.67963 -98.55804 34943 ft 513 kts 48°
2026-04-21 07:43 52.72225 -98.46477 34950 ft 514 kts 47°
2026-04-21 07:44 52.76529 -98.37026 34937 ft 514 kts 48°
2026-04-21 07:44 52.80832 -98.27548 34941 ft 514 kts 48°
2026-04-21 07:45 52.85089 -98.18136 34940 ft 514 kts 48°
2026-04-21 07:45 52.89362 -98.08651 34955 ft 514 kts 48°
2026-04-21 07:46 52.93639 -97.99112 34942 ft 514 kts 48°
2026-04-21 07:46 52.97894 -97.89597 34933 ft 514 kts 48°
2026-04-21 07:47 53.02149 -97.80046 34933 ft 515 kts 48°
2026-04-21 07:47 53.06372 -97.70530 34930 ft 515 kts 48°
2026-04-21 07:48 53.10626 -97.60910 34942 ft 515 kts 47°
2026-04-21 07:48 53.14864 -97.51282 34910 ft 515 kts 47°
2026-04-21 07:49 53.19092 -97.41645 34908 ft 515 kts 48°
2026-04-21 07:49 53.23308 -97.32002 34909 ft 515 kts 48°
2026-04-21 07:50 53.26840 -97.23896 34911 ft 515 kts 48°
2026-04-21 07:50 53.31023 -97.14251 34922 ft 515 kts 47°
2026-04-21 07:51 53.35222 -97.04533 34916 ft 515 kts 48°
2026-04-21 07:51 53.39412 -96.94810 34913 ft 515 kts 48°
2026-04-21 07:52 53.43591 -96.85074 34909 ft 515 kts 48°
2026-04-21 07:52 53.47774 -96.75290 34909 ft 515 kts 48°
2026-04-21 07:53 53.51931 -96.65519 34906 ft 515 kts 48°
2026-04-21 07:53 53.56106 -96.55668 34923 ft 515 kts 48°
2026-04-21 07:54 53.60242 -96.45876 34913 ft 516 kts 47°
2026-04-21 07:54 53.64420 -96.35950 34901 ft 516 kts 48°
2026-04-21 07:55 53.68543 -96.26120 34898 ft 517 kts 48°
2026-04-21 07:55 53.72686 -96.16192 34901 ft 517 kts 47°
2026-04-21 07:56 53.76813 -96.06261 34890 ft 516 kts 47°
2026-04-21 07:56 53.80932 -95.96316 34890 ft 516 kts 47°
2026-04-21 07:57 53.85039 -95.86365 34892 ft 515 kts 48°
2026-04-21 07:57 53.89146 -95.76371 34927 ft 516 kts 47°
2026-04-21 07:58 53.93243 -95.66349 34884 ft 517 kts 47°
2026-04-21 07:58 53.97343 -95.56291 34883 ft 517 kts 47°
2026-04-21 07:59 54.01413 -95.46274 34876 ft 517 kts 47°
2026-04-21 07:59 54.05491 -95.36194 34868 ft 517 kts 47°
2026-04-21 08:00 54.09561 -95.26090 34893 ft 517 kts 47°
2026-04-21 08:00 54.13621 -95.15957 34920 ft 517 kts 47°
2026-04-21 08:01 54.17676 -95.05805 34866 ft 518 kts 47°
2026-04-21 08:02 54.23727 -94.90589 34864 ft 519 kts 47°
2026-04-21 08:02 54.27779 -94.80348 34856 ft 519 kts 47°
2026-04-21 08:03 54.31810 -94.70111 34859 ft 519 kts 47°
2026-04-21 08:03 54.35841 -94.59834 34849 ft 519 kts 47°
2026-04-21 08:04 54.39870 -94.49518 34848 ft 519 kts 47°
2026-04-21 08:04 54.43881 -94.39204 34850 ft 521 kts 47°
2026-04-21 08:05 54.47875 -94.28890 34840 ft 522 kts 47°
2026-04-21 08:05 54.51897 -94.18459 34831 ft 522 kts 47°
2026-04-21 08:06 54.55901 -94.08033 34827 ft 522 kts 47°
2026-04-21 08:06 54.59907 -93.97565 34830 ft 521 kts 47°
2026-04-21 08:07 54.63885 -93.87125 34822 ft 521 kts 47°
2026-04-21 08:07 54.67860 -93.76647 34861 ft 521 kts 47°
2026-04-21 08:08 54.71805 -93.66196 34835 ft 522 kts 47°
2026-04-21 08:08 54.75774 -93.55635 34807 ft 522 kts 47°
2026-04-21 08:09 54.79702 -93.45148 34802 ft 521 kts 47°
2026-04-21 08:09 54.83639 -93.34594 34808 ft 521 kts 47°
2026-04-21 08:10 54.87565 -93.24027 34848 ft 521 kts 47°
2026-04-21 08:10 54.91485 -93.13421 34816 ft 521 kts 47°
2026-04-21 08:11 54.95390 -93.02810 34803 ft 521 kts 47°
2026-04-21 08:11 54.99264 -92.92241 34822 ft 521 kts 47°
2026-04-21 08:12 55.03153 -92.81590 34808 ft 521 kts 48°
2026-04-21 08:12 55.07042 -92.70892 34842 ft 522 kts 48°
2026-04-21 08:13 55.10915 -92.60186 34794 ft 522 kts 48°
2026-04-21 08:13 55.14774 -92.49466 34792 ft 520 kts 48°
2026-04-21 08:14 55.18621 -92.38738 34793 ft 520 kts 48°
2026-04-21 08:14 55.22457 -92.28001 34790 ft 520 kts 48°
2026-04-21 08:15 55.26279 -92.17256 34827 ft 521 kts 48°
2026-04-21 08:15 55.30112 -92.06434 34809 ft 520 kts 49°
2026-04-21 08:16 55.33919 -91.95622 34793 ft 520 kts 49°
2026-04-21 08:16 55.37705 -91.84828 34796 ft 520 kts 49°
2026-04-21 08:17 55.41489 -91.73995 34791 ft 520 kts 49°
2026-04-21 08:17 55.45257 -91.63161 34827 ft 520 kts 49°
2026-04-21 08:18 55.49029 -91.52275 34775 ft 520 kts 49°
2026-04-21 08:18 55.52792 -91.41350 34795 ft 519 kts 50°
2026-04-21 08:19 55.56534 -91.30448 34772 ft 519 kts 50°
2026-04-21 08:19 55.60272 -91.19501 34767 ft 519 kts 50°
2026-04-21 08:20 55.63976 -91.08607 34785 ft 520 kts 50°
2026-04-21 08:20 55.67693 -90.97631 34776 ft 519 kts 50°
2026-04-21 08:21 55.71386 -90.86667 34756 ft 518 kts 51°
2026-04-21 08:21 55.75073 -90.75666 34747 ft 518 kts 51°
2026-04-21 08:22 55.78749 -90.64657 34774 ft 517 kts 51°
2026-04-21 08:22 55.82359 -90.53787 34767 ft 507 kts 52°
2026-04-21 08:23 55.85905 -90.43064 34735 ft 498 kts 52°
2026-04-21 08:23 55.89387 -90.32488 34745 ft 491 kts 52°
2026-04-21 08:24 55.92811 -90.22058 34724 ft 489 kts 52°
2026-04-21 08:24 55.96223 -90.11618 34726 ft 486 kts 52°
2026-04-21 08:25 55.99621 -90.01178 34731 ft 486 kts 52°
2026-04-21 08:25 56.03276 -89.90883 34711 ft 496 kts 48°
2026-04-21 08:26 56.07313 -89.80657 34738 ft 506 kts 47°
2026-04-21 08:26 56.11437 -89.70308 34716 ft 511 kts 47°
2026-04-21 08:27 56.15498 -89.59833 34713 ft 512 kts 48°
2026-04-21 08:27 56.19485 -89.49332 34700 ft 512 kts 49°
2026-04-21 08:28 56.23482 -89.38728 34703 ft 511 kts 49°
2026-04-21 08:28 56.27457 -89.28168 34717 ft 510 kts 49°
2026-04-21 08:29 56.31414 -89.17644 34723 ft 509 kts 49°
2026-04-21 08:29 56.35387 -89.07057 34696 ft 509 kts 50°
2026-04-21 08:30 56.39341 -88.96446 34688 ft 509 kts 50°
2026-04-21 08:30 56.43268 -88.85845 34688 ft 508 kts 50°
2026-04-21 08:31 56.47205 -88.75186 34694 ft 507 kts 50°
2026-04-21 08:31 56.51088 -88.64630 34684 ft 507 kts 50°
2026-04-21 08:32 56.54988 -88.53973 34673 ft 507 kts 50°
2026-04-21 08:32 56.58878 -88.43299 34644 ft 504 kts 51°
2026-04-21 08:33 56.62734 -88.32673 34648 ft 502 kts 51°
2026-04-21 08:33 56.66530 -88.22161 34673 ft 496 kts 51°
2026-04-21 08:34 56.70256 -88.11790 34646 ft 488 kts 51°
2026-04-21 08:34 56.73365 -88.03115 34646 ft 487 kts 51°
2026-04-21 08:35 56.77644 -87.91126 34646 ft 483 kts 51°
2026-04-21 08:35 56.81294 -87.80853 34650 ft 481 kts 52°
2026-04-21 08:36 56.84306 -87.72344 34647 ft 478 kts 52°
2026-04-21 08:36 56.87883 -87.62190 34653 ft 473 kts 52°
2026-04-21 08:37 56.91420 -87.52109 34645 ft 468 kts 52°
2026-04-21 08:37 56.94900 -87.42151 34630 ft 464 kts 52°
2026-04-21 08:38 56.98358 -87.32213 34644 ft 460 kts 52°
2026-04-21 08:38 57.01794 -87.22304 34633 ft 458 kts 52°
2026-04-21 08:39 57.05184 -87.12486 34632 ft 455 kts 52°
2026-04-21 08:39 57.08559 -87.02672 34673 ft 453 kts 53°
2026-04-21 08:40 57.11925 -86.92851 34650 ft 451 kts 53°
2026-04-21 08:40 57.15249 -86.83103 34628 ft 450 kts 53°
2026-04-21 08:41 57.18557 -86.73358 34638 ft 448 kts 53°
2026-04-21 08:41 57.21836 -86.63659 34641 ft 447 kts 53°
2026-04-21 08:42 57.25132 -86.53875 34631 ft 445 kts 53°
2026-04-21 08:42 57.28371 -86.44220 34637 ft 444 kts 53°
2026-04-21 08:43 57.31620 -86.34501 34644 ft 443 kts 53°
2026-04-21 08:43 57.34846 -86.24814 34650 ft 443 kts 54°
2026-04-21 08:44 57.38071 -86.15085 34655 ft 442 kts 54°
2026-04-21 08:44 57.41281 -86.05355 34649 ft 442 kts 54°
2026-04-21 08:45 57.44481 -85.95615 34650 ft 441 kts 54°
2026-04-21 08:45 57.47673 -85.85864 34661 ft 440 kts 54°
2026-04-21 08:46 57.50830 -85.76183 34671 ft 440 kts 54°
2026-04-21 08:46 57.54004 -85.66412 34677 ft 439 kts 54°
2026-04-21 08:47 57.57142 -85.56708 34660 ft 439 kts 55°
2026-04-21 08:47 57.60286 -85.46942 34677 ft 439 kts 55°
2026-04-21 08:48 57.63431 -85.37133 34692 ft 439 kts 55°
2026-04-21 08:48 57.66535 -85.27416 34688 ft 438 kts 55°
2026-04-21 08:49 57.69655 -85.17605 34691 ft 438 kts 55°
2026-04-21 08:49 57.72764 -85.07790 34714 ft 438 kts 56°
2026-04-21 08:50 57.75847 -84.98016 34710 ft 438 kts 56°
2026-04-21 08:50 57.78938 -84.88176 34724 ft 438 kts 56°
2026-04-21 08:51 57.82019 -84.78326 34748 ft 437 kts 56°
2026-04-21 08:51 57.85088 -84.68475 34739 ft 438 kts 56°
2026-04-21 08:52 57.88157 -84.58584 34750 ft 438 kts 57°
2026-04-21 08:52 57.91221 -84.48663 34747 ft 438 kts 57°
2026-04-21 08:53 57.94255 -84.38798 34751 ft 438 kts 57°
2026-04-21 08:53 57.97302 -84.28852 34762 ft 438 kts 57°
2026-04-21 08:54 58.00327 -84.18935 34762 ft 438 kts 57°
2026-04-21 08:54 58.03362 -84.08942 34781 ft 438 kts 57°
2026-04-21 08:55 58.06387 -83.98940 34801 ft 438 kts 57°
2026-04-21 08:55 58.09386 -83.88985 34790 ft 438 kts 57°
2026-04-21 08:56 58.12390 -83.78958 34798 ft 439 kts 58°
2026-04-21 08:56 58.15396 -83.68888 34799 ft 439 kts 58°
2026-04-21 08:57 58.18392 -83.58815 34798 ft 439 kts 58°
2026-04-21 08:57 58.21366 -83.48771 34805 ft 439 kts 58°
2026-04-21 08:58 58.24347 -83.38655 34805 ft 439 kts 58°
2026-04-21 08:58 58.27325 -83.28503 34822 ft 439 kts 59°
2026-04-21 08:59 58.30271 -83.18416 34841 ft 439 kts 58°
2026-04-21 08:59 58.33231 -83.08236 34816 ft 439 kts 59°
2026-04-21 09:00 58.36184 -82.98041 34851 ft 439 kts 59°
2026-04-21 09:00 58.39134 -82.87807 34836 ft 440 kts 59°
2026-04-21 09:01 58.42065 -82.77599 34859 ft 440 kts 59°
2026-04-21 09:01 58.44998 -82.67332 34857 ft 440 kts 59°
2026-04-21 09:02 58.47922 -82.57054 34853 ft 440 kts 59°
2026-04-21 09:02 58.50818 -82.46828 34894 ft 440 kts 60°
2026-04-21 09:03 58.55185 -82.31319 34895 ft 440 kts 60°
2026-04-21 09:03 58.58089 -82.20949 34917 ft 441 kts 60°
2026-04-21 09:04 58.60963 -82.10639 34896 ft 441 kts 60°
2026-04-21 09:04 58.63857 -82.00212 34899 ft 441 kts 60°
2026-04-21 09:05 58.66734 -81.89793 34909 ft 441 kts 60°
2026-04-21 09:05 58.69589 -81.79410 34906 ft 442 kts 61°
2026-04-21 09:06 58.72466 -81.68904 34920 ft 442 kts 60°
2026-04-21 09:06 58.75301 -81.58494 34937 ft 442 kts 61°
2026-04-21 09:07 58.78147 -81.48001 34940 ft 442 kts 61°
2026-04-21 09:07 58.80997 -81.37442 34951 ft 442 kts 61°
2026-04-21 09:08 58.83838 -81.26867 34946 ft 442 kts 61°
2026-04-21 09:08 58.86648 -81.16358 34973 ft 442 kts 62°
2026-04-21 09:09 58.89476 -81.05738 34965 ft 443 kts 62°
2026-04-21 09:09 58.92265 -80.95210 34960 ft 443 kts 62°
2026-04-21 09:10 58.95073 -80.84562 34971 ft 443 kts 62°
2026-04-21 09:10 58.97851 -80.73972 34980 ft 443 kts 62°
2026-04-21 09:11 59.00644 -80.63281 34987 ft 443 kts 62°
2026-04-21 09:11 59.03425 -80.52584 35004 ft 443 kts 62°
2026-04-21 09:12 59.06201 -80.41851 35002 ft 444 kts 62°
2026-04-21 09:12 59.08946 -80.31189 35005 ft 443 kts 63°
2026-04-21 09:13 59.11698 -80.20449 35011 ft 443 kts 63°
2026-04-21 09:13 59.14437 -80.09713 35022 ft 443 kts 63°
2026-04-21 09:14 59.17232 -79.98940 35044 ft 452 kts 60°
2026-04-21 09:14 59.20577 -79.88350 35048 ft 469 kts 54°
2026-04-21 09:15 59.24449 -79.77766 35051 ft 485 kts 52°
2026-04-21 09:15 59.28610 -79.67151 35044 ft 499 kts 51°
2026-04-21 09:16 59.32792 -79.56199 35069 ft 509 kts 53°
2026-04-21 09:16 59.36916 -79.44858 35050 ft 512 kts 54°
2026-04-21 09:17 59.40978 -79.33371 35064 ft 511 kts 54°
2026-04-21 09:17 59.45017 -79.21878 35073 ft 508 kts 54°
2026-04-21 09:18 59.49013 -79.10521 35074 ft 505 kts 54°
2026-04-21 09:18 59.52993 -78.99198 35081 ft 504 kts 54°
2026-04-21 09:19 59.56974 -78.87824 35080 ft 504 kts 54°
2026-04-21 09:19 59.60956 -78.76386 35083 ft 504 kts 54°
2026-04-21 09:20 59.64916 -78.64950 35101 ft 506 kts 55°
2026-04-21 09:20 59.68870 -78.53475 35116 ft 507 kts 55°
2026-04-21 09:21 59.72824 -78.41947 35103 ft 507 kts 55°
2026-04-21 09:21 59.76783 -78.30343 35117 ft 506 kts 55°
2026-04-21 09:22 59.80727 -78.18720 35114 ft 506 kts 56°
2026-04-21 09:22 59.84635 -78.07150 35117 ft 506 kts 56°
2026-04-21 09:23 59.87889 -77.97472 35133 ft 504 kts 56°
2026-04-21 09:23 59.91787 -77.85831 35142 ft 504 kts 56°
2026-04-21 09:24 59.95657 -77.74214 35146 ft 504 kts 56°
2026-04-21 09:24 59.99540 -77.62497 35147 ft 504 kts 56°
2026-04-21 09:25 60.03385 -77.50834 35150 ft 504 kts 56°
2026-04-21 09:25 60.07235 -77.39101 35161 ft 505 kts 56°
2026-04-21 09:26 60.11075 -77.27339 35162 ft 505 kts 57°
2026-04-21 09:26 60.14924 -77.15495 35169 ft 505 kts 57°
2026-04-21 09:27 60.18726 -77.03735 35173 ft 506 kts 57°
2026-04-21 09:27 60.22556 -76.91820 35180 ft 506 kts 57°
2026-04-21 09:28 60.26367 -76.79894 35175 ft 506 kts 57°
2026-04-21 09:28 60.30168 -76.67947 35183 ft 506 kts 57°
2026-04-21 09:29 60.33940 -76.56036 35186 ft 506 kts 57°
2026-04-21 09:29 60.37735 -76.43994 35187 ft 506 kts 58°
2026-04-21 09:30 60.41509 -76.31958 35190 ft 506 kts 58°
2026-04-21 09:30 60.45253 -76.19949 35198 ft 506 kts 58°
2026-04-21 09:31 60.48984 -76.07912 35198 ft 507 kts 58°
2026-04-21 09:31 60.52737 -75.95747 35201 ft 507 kts 58°
2026-04-21 09:32 60.56461 -75.83608 35202 ft 507 kts 58°
2026-04-21 09:32 60.60179 -75.71419 35215 ft 507 kts 59°
2026-04-21 09:33 60.63902 -75.59166 35216 ft 508 kts 59°
2026-04-21 09:33 60.67587 -75.46970 35220 ft 508 kts 59°
2026-04-21 09:34 60.71294 -75.34632 35223 ft 508 kts 59°
2026-04-21 09:34 60.74957 -75.22374 35222 ft 508 kts 59°
2026-04-21 09:35 60.78628 -75.10021 35226 ft 508 kts 59°
2026-04-21 09:35 60.82273 -74.97695 35231 ft 508 kts 59°
2026-04-21 09:36 60.85940 -74.85224 35230 ft 506 kts 59°
2026-04-21 09:36 60.89557 -74.72856 35239 ft 503 kts 59°
2026-04-21 09:37 60.93107 -74.60647 35253 ft 503 kts 60°
2026-04-21 09:37 60.96694 -74.48245 35250 ft 502 kts 60°
2026-04-21 09:38 61.00251 -74.35888 35238 ft 498 kts 60°
2026-04-21 09:38 61.03748 -74.23677 35238 ft 489 kts 60°
2026-04-21 09:39 61.07161 -74.11687 35261 ft 482 kts 60°
2026-04-21 09:39 61.10534 -73.99772 35264 ft 479 kts 60°
2026-04-21 09:40 61.13862 -73.87958 35243 ft 474 kts 61°
2026-04-21 09:40 61.17186 -73.76094 35243 ft 477 kts 61°
2026-04-21 09:41 61.20496 -73.64228 35248 ft 472 kts 61°
2026-04-21 09:41 61.23748 -73.52513 35246 ft 468 kts 62°
2026-04-21 09:42 61.26960 -73.40874 35250 ft 464 kts 62°
2026-04-21 09:42 61.30148 -73.29257 35247 ft 461 kts 62°
2026-04-21 09:43 61.33312 -73.17668 35248 ft 459 kts 62°
2026-04-21 09:43 61.36446 -73.06132 35245 ft 457 kts 62°
2026-04-21 09:44 61.39578 -72.94545 35249 ft 455 kts 62°
2026-04-21 09:44 61.42659 -72.83095 35246 ft 453 kts 63°
2026-04-21 09:45 61.45717 -72.71676 35248 ft 452 kts 63°
2026-04-21 09:45 61.48786 -72.60147 35252 ft 450 kts 63°
2026-04-21 09:46 61.51809 -72.48726 35254 ft 450 kts 63°
2026-04-21 09:46 61.54825 -72.37272 35245 ft 449 kts 64°
2026-04-21 09:47 61.57840 -72.25769 35247 ft 448 kts 64°
2026-04-21 09:47 61.60841 -72.14264 35233 ft 448 kts 64°
2026-04-21 09:48 61.63819 -72.02784 35229 ft 448 kts 64°
2026-04-21 09:48 61.66798 -71.91255 35230 ft 446 kts 65°
2026-04-21 09:49 61.69729 -71.79834 35218 ft 446 kts 65°
2026-04-21 09:49 61.72661 -71.68355 35228 ft 446 kts 65°
2026-04-21 09:50 61.75597 -71.56798 35226 ft 446 kts 65°
2026-04-21 09:50 61.78507 -71.45288 35219 ft 446 kts 65°
2026-04-21 09:51 61.81413 -71.33734 35216 ft 446 kts 65°
2026-04-21 09:51 61.84324 -71.22099 35219 ft 445 kts 65°
2026-04-21 09:52 61.87200 -71.10538 35218 ft 446 kts 66°
2026-04-21 09:52 61.90087 -70.98880 35215 ft 445 kts 66°
2026-04-21 09:53 61.92953 -70.87244 35217 ft 445 kts 66°
2026-04-21 09:53 61.95821 -70.75534 35219 ft 445 kts 66°
2026-04-21 09:54 61.98668 -70.63848 35216 ft 445 kts 66°
2026-04-21 09:54 62.01485 -70.52226 35214 ft 446 kts 66°
2026-04-21 09:55 62.04339 -70.40389 35207 ft 446 kts 67°
2026-04-21 09:55 62.07140 -70.28707 35208 ft 446 kts 67°
2026-04-21 09:56 62.09968 -70.16846 35205 ft 446 kts 67°
2026-04-21 09:56 62.12764 -70.05061 35192 ft 445 kts 68°
2026-04-21 09:57 62.15553 -69.93235 35205 ft 445 kts 68°
2026-04-21 09:57 62.18346 -69.81328 35201 ft 446 kts 68°
2026-04-21 09:58 62.21096 -69.69541 35199 ft 446 kts 68°
2026-04-21 09:58 62.23872 -69.57576 35189 ft 446 kts 69°
2026-04-21 09:59 62.26621 -69.45664 35189 ft 446 kts 69°
2026-04-21 09:59 62.29375 -69.33662 35190 ft 447 kts 69°
2026-04-21 10:00 62.32107 -69.21691 35197 ft 447 kts 69°
2026-04-21 10:00 62.34826 -69.09708 35164 ft 447 kts 70°
2026-04-21 10:01 62.37558 -68.97603 35181 ft 447 kts 70°
2026-04-21 10:01 62.40249 -68.85606 35186 ft 447 kts 70°
2026-04-21 10:02 62.44300 -68.67423 35184 ft 448 kts 70°
2026-04-21 10:03 62.46979 -68.55309 35182 ft 448 kts 71°
2026-04-21 10:03 62.49663 -68.43106 35186 ft 449 kts 71°
2026-04-21 10:04 62.52334 -68.30894 35185 ft 449 kts 71°
2026-04-21 10:04 62.54994 -68.18658 35186 ft 450 kts 71°
2026-04-21 10:05 62.57645 -68.06397 35173 ft 450 kts 72°
2026-04-21 10:05 62.60292 -67.94075 35190 ft 450 kts 72°
2026-04-21 10:06 62.62930 -67.81734 35178 ft 450 kts 72°
2026-04-21 10:06 62.65552 -67.69383 35181 ft 451 kts 72°
2026-04-21 10:07 62.68169 -67.56985 35179 ft 451 kts 72°
2026-04-21 10:07 62.70779 -67.44548 35172 ft 451 kts 73°
2026-04-21 10:08 62.73379 -67.32088 35169 ft 452 kts 73°
2026-04-21 10:08 62.75971 -67.19583 35177 ft 451 kts 73°
2026-04-21 10:09 62.78539 -67.07132 35121 ft 452 kts 73°
2026-04-21 10:09 62.81088 -66.94578 35151 ft 450 kts 75°
2026-04-21 10:10 62.83112 -66.84083 35156 ft 450 kts 75°
2026-04-21 10:10 62.85517 -66.71384 35167 ft 449 kts 75°
2026-04-21 10:11 62.87892 -66.58820 35165 ft 450 kts 75°
2026-04-21 10:11 62.90289 -66.46134 35164 ft 450 kts 75°
2026-04-21 10:12 62.92676 -66.33434 35165 ft 450 kts 76°
2026-04-21 10:12 62.95049 -66.20730 35156 ft 450 kts 76°
2026-04-21 10:13 62.97417 -66.07964 35143 ft 450 kts 76°
2026-04-21 10:13 62.99763 -65.95222 35159 ft 450 kts 76°
2026-04-21 10:14 63.02105 -65.82430 35145 ft 451 kts 76°
2026-04-21 10:14 63.04434 -65.69615 35160 ft 451 kts 77°
2026-04-21 10:15 63.06749 -65.56801 35149 ft 450 kts 77°
2026-04-21 10:15 63.09057 -65.43948 35156 ft 450 kts 77°
2026-04-21 10:16 63.11354 -65.31065 35139 ft 451 kts 77°
2026-04-21 10:16 63.13628 -65.18223 35132 ft 451 kts 78°
2026-04-21 10:17 63.15913 -65.05233 35079 ft 451 kts 78°
2026-04-21 10:17 63.18176 -64.92297 35120 ft 449 kts 78°
2026-04-21 10:18 63.20407 -64.79437 35136 ft 449 kts 79°
2026-04-21 10:18 63.22637 -64.66491 35143 ft 449 kts 79°
2026-04-21 10:19 63.24846 -64.53583 35129 ft 450 kts 79°
2026-04-21 10:19 63.27065 -64.40538 35130 ft 450 kts 79°
2026-04-21 10:20 63.29267 -64.27500 35103 ft 450 kts 79°
2026-04-21 10:20 63.31443 -64.14513 35125 ft 449 kts 80°
2026-04-21 10:21 63.33615 -64.01477 35068 ft 450 kts 80°
2026-04-21 10:21 63.35770 -63.88462 35131 ft 448 kts 81°
2026-04-21 10:22 63.37915 -63.75391 35124 ft 449 kts 81°
2026-04-21 10:22 63.40040 -63.62351 35129 ft 449 kts 81°
2026-04-21 10:23 63.42168 -63.49207 35131 ft 449 kts 81°
2026-04-21 10:23 63.44277 -63.36087 35131 ft 449 kts 81°
2026-04-21 10:24 63.46360 -63.23044 35126 ft 448 kts 82°
2026-04-21 10:24 63.48444 -63.09894 35129 ft 448 kts 82°
2026-04-21 10:25 63.50574 -62.96612 35151 ft 460 kts 80°
2026-04-21 10:25 63.51790 -62.89982 35103 ft 472 kts 78°
2026-04-21 10:25 63.53161 -62.83096 35139 ft 483 kts 76°
2026-04-21 10:26 63.56046 -62.69217 35143 ft 501 kts 76°
2026-04-21 10:26 63.59007 -62.54831 35140 ft 514 kts 76°
2026-04-21 10:27 63.61946 -62.40126 35106 ft 518 kts 77°
2026-04-21 10:27 63.64863 -62.25250 35117 ft 519 kts 77°
2026-04-21 10:28 63.67751 -62.10340 35118 ft 517 kts 77°
2026-04-21 10:28 63.70596 -61.95546 35115 ft 515 kts 78°
2026-04-21 10:29 63.73418 -61.80789 35116 ft 513 kts 78°
2026-04-21 10:29 63.76232 -61.66060 35070 ft 500 kts 79°
2026-04-21 10:30 63.78934 -61.51803 35079 ft 490 kts 79°
2026-04-21 10:30 63.81574 -61.37663 35084 ft 484 kts 80°
2026-04-21 10:31 63.84148 -61.23760 35105 ft 479 kts 80°
2026-04-21 10:31 63.86704 -61.09882 35103 ft 475 kts 81°
2026-04-21 10:32 63.89237 -60.96060 35089 ft 472 kts 81°
2026-04-21 10:32 63.91742 -60.82298 35093 ft 469 kts 81°
2026-04-21 10:33 63.94213 -60.68633 35059 ft 466 kts 81°
2026-04-21 10:33 63.96652 -60.55061 35016 ft 463 kts 82°
2026-04-21 10:34 63.99073 -60.41500 35085 ft 459 kts 82°
2026-04-21 10:34 64.01439 -60.28113 35077 ft 458 kts 82°
2026-04-21 10:35 64.03799 -60.14670 35082 ft 456 kts 82°
2026-04-21 10:35 64.06156 -60.01166 35078 ft 455 kts 82°
2026-04-21 10:36 64.08476 -59.87783 35078 ft 454 kts 82°
2026-04-21 10:36 64.10794 -59.74325 35073 ft 452 kts 83°
2026-04-21 10:37 64.13081 -59.60953 35067 ft 451 kts 83°
2026-04-21 10:37 64.15353 -59.47566 35073 ft 450 kts 83°
2026-04-21 10:38 64.17596 -59.34260 35006 ft 450 kts 83°
2026-04-21 10:38 64.19841 -59.20860 35060 ft 448 kts 83°
2026-04-21 10:39 64.22061 -59.07516 35068 ft 447 kts 83°
2026-04-21 10:39 64.24098 -58.94169 35067 ft 439 kts 89°
2026-04-21 10:40 64.25580 -58.80260 35075 ft 453 kts 91°
2026-04-21 10:40 64.27048 -58.65927 35085 ft 473 kts 89°
2026-04-21 10:41 64.28746 -58.50901 35074 ft 492 kts 87°
2026-04-21 10:41 64.30632 -58.35667 35067 ft 502 kts 86°
2026-04-21 10:42 64.32529 -58.20140 35060 ft 500 kts 87°
2026-04-21 10:42 64.34297 -58.04795 35046 ft 496 kts 88°
2026-04-21 10:43 64.36003 -57.89310 35049 ft 496 kts 88°
2026-04-21 10:43 64.37666 -57.73961 35052 ft 496 kts 88°
2026-04-21 10:44 64.39344 -57.58408 35046 ft 495 kts 88°
2026-04-21 10:44 64.40999 -57.42980 35043 ft 495 kts 88°
2026-04-21 10:45 64.42636 -57.27572 35038 ft 495 kts 88°
2026-04-21 10:45 64.44270 -57.12022 35037 ft 494 kts 89°
2026-04-21 10:46 64.45862 -56.96645 34983 ft 493 kts 88°
2026-04-21 10:46 64.47442 -56.81170 35007 ft 494 kts 88°
2026-04-21 10:47 64.49020 -56.65540 35030 ft 499 kts 88°
2026-04-21 10:47 64.50593 -56.49869 35033 ft 501 kts 88°
2026-04-21 10:48 64.52156 -56.34157 35024 ft 501 kts 88°
2026-04-21 10:48 64.53718 -56.18274 35026 ft 500 kts 88°
2026-04-21 10:49 64.55234 -56.02613 35026 ft 498 kts 89°
2026-04-21 10:49 64.56731 -55.86933 35004 ft 497 kts 89°
2026-04-21 10:50 64.57964 -55.73802 35002 ft 498 kts 88°
2026-04-21 10:50 64.59675 -55.55370 35042 ft 502 kts 88°
2026-04-21 10:51 64.61136 -55.39500 35048 ft 504 kts 88°
2026-04-21 10:51 64.62593 -55.23529 35040 ft 504 kts 88°
2026-04-21 10:52 64.64034 -55.07527 35053 ft 503 kts 88°
2026-04-21 10:52 64.65458 -54.91465 35063 ft 502 kts 89°
2026-04-21 10:53 64.66843 -54.75589 35037 ft 501 kts 89°
2026-04-21 10:53 64.68207 -54.59704 35074 ft 499 kts 89°
2026-04-21 10:54 64.69548 -54.43916 35090 ft 498 kts 89°
2026-04-21 10:54 64.70884 -54.28002 35109 ft 497 kts 89°
2026-04-21 10:55 64.72205 -54.12035 35108 ft 497 kts 89°
2026-04-21 10:55 64.73496 -53.96197 35124 ft 498 kts 89°
2026-04-21 10:56 64.74778 -53.80245 35142 ft 498 kts 89°
2026-04-21 10:56 64.76036 -53.64363 35113 ft 496 kts 89°
2026-04-21 10:57 64.77270 -53.48554 35122 ft 493 kts 89°
2026-04-21 10:57 64.78286 -53.35335 35165 ft 493 kts 89°
2026-04-21 10:58 64.79685 -53.16902 35168 ft 493 kts 89°
2026-04-21 10:58 64.80672 -53.03728 35198 ft 494 kts 89°
2026-04-21 10:59 64.81853 -52.87735 35196 ft 494 kts 89°
2026-04-21 10:59 64.83009 -52.71840 35195 ft 494 kts 89°
2026-04-21 11:00 64.84146 -52.55924 35193 ft 494 kts 90°
2026-04-21 11:00 64.85268 -52.39951 35213 ft 495 kts 90°
2026-04-21 11:01 64.86361 -52.24093 35212 ft 494 kts 89°
2026-04-21 11:01 64.87443 -52.08164 35227 ft 494 kts 89°
2026-04-21 11:02 64.89051 -51.84197 35221 ft 493 kts 89°
2026-04-21 11:02 64.90094 -51.68263 35233 ft 493 kts 90°
2026-04-21 11:03 64.91116 -51.52332 35200 ft 492 kts 89°
2026-04-21 11:03 64.92119 -51.36347 35235 ft 491 kts 89°
2026-04-21 11:04 64.93104 -51.20463 35249 ft 491 kts 89°
2026-04-21 11:04 64.94069 -51.04503 35233 ft 492 kts 88°
2026-04-21 11:05 64.95025 -50.88489 35250 ft 493 kts 89°
2026-04-21 11:05 64.95973 -50.72420 35249 ft 494 kts 89°
2026-04-21 11:06 64.96900 -50.56364 35235 ft 494 kts 89°
2026-04-21 11:06 64.97804 -50.40328 35230 ft 494 kts 88°
2026-04-21 11:07 64.98687 -50.24288 35242 ft 493 kts 88°
2026-04-21 11:07 64.99571 -50.08089 35228 ft 492 kts 89°
2026-04-21 11:08 65.00397 -49.92107 35196 ft 489 kts 89°
2026-04-21 11:08 65.00943 -49.76104 35226 ft 487 kts 91°
2026-04-21 11:09 65.01342 -49.60194 35242 ft 488 kts 91°
2026-04-21 11:09 65.01760 -49.44156 35252 ft 489 kts 91°
2026-04-21 11:10 65.02218 -49.28014 35250 ft 489 kts 91°
2026-04-21 11:10 65.02678 -49.12043 35265 ft 488 kts 91°
2026-04-21 11:11 65.03119 -48.96045 35270 ft 488 kts 92°
2026-04-21 11:11 65.03537 -48.79976 35269 ft 487 kts 92°
2026-04-21 11:12 65.03928 -48.64114 35254 ft 485 kts 92°
2026-04-21 11:12 65.04307 -48.48163 35267 ft 484 kts 92°
2026-04-21 11:13 65.04669 -48.32304 35267 ft 483 kts 92°
2026-04-21 11:13 65.05014 -48.16400 35267 ft 483 kts 92°
2026-04-21 11:14 65.05346 -48.00711 35260 ft 469 kts 93°
2026-04-21 11:14 65.05645 -47.85371 35280 ft 463 kts 93°
2026-04-21 11:15 65.05924 -47.70179 35295 ft 457 kts 93°
2026-04-21 11:15 65.06179 -47.55186 35303 ft 464 kts 93°
2026-04-21 11:16 65.06427 -47.39623 35329 ft 473 kts 92°
2026-04-21 11:16 65.06676 -47.24048 35343 ft 474 kts 93°
2026-04-21 11:17 65.06901 -47.08479 35353 ft 478 kts 93°
2026-04-21 11:17 65.07119 -46.92860 35350 ft 468 kts 93°
2026-04-21 11:18 65.07310 -46.77613 35358 ft 462 kts 93°
2026-04-21 11:18 65.07480 -46.62407 35361 ft 456 kts 94°
2026-04-21 11:19 65.07630 -46.47502 35349 ft 452 kts 94°
2026-04-21 11:19 65.07762 -46.32511 35383 ft 457 kts 93°
2026-04-21 11:20 65.07889 -46.17488 35391 ft 457 kts 94°
2026-04-21 11:20 65.08004 -46.02494 35379 ft 453 kts 93°
2026-04-21 11:21 65.08103 -45.87526 35381 ft 449 kts 94°
2026-04-21 11:21 65.08181 -45.72824 35405 ft 447 kts 92°
2026-04-21 11:22 65.08244 -45.58047 35403 ft 448 kts 94°
2026-04-21 11:22 65.08290 -45.43298 35429 ft 448 kts 95°
2026-04-21 11:23 65.08325 -45.28525 35426 ft 448 kts 93°
2026-04-21 11:23 65.08338 -45.13771 35439 ft 451 kts 93°
2026-04-21 11:24 65.08343 -44.98809 35444 ft 454 kts 94°
2026-04-21 11:24 65.08334 -44.83812 35436 ft 459 kts 95°
2026-04-21 11:25 65.08322 -44.68794 35480 ft 453 kts 95°
2026-04-21 11:25 65.08284 -44.53815 35498 ft 453 kts 93°
2026-04-21 11:26 65.08230 -44.39049 35513 ft 451 kts 94°
2026-04-21 11:26 65.08166 -44.24079 35493 ft 451 kts 92°
2026-04-21 11:27 65.08079 -44.09198 35509 ft 450 kts 94°
2026-04-21 11:27 65.07970 -43.94259 35509 ft 459 kts 93°
2026-04-21 11:28 65.07860 -43.79143 35533 ft 460 kts 93°
2026-04-21 11:28 65.07740 -43.64035 35530 ft 457 kts 93°
2026-04-21 11:29 65.07594 -43.49025 35534 ft 454 kts 92°
2026-04-21 11:29 65.07424 -43.33882 35524 ft 466 kts 94°
2026-04-21 11:30 65.07250 -43.18491 35527 ft 462 kts 93°
2026-04-21 11:30 65.07064 -43.03284 35558 ft 458 kts 93°
2026-04-21 11:31 65.06862 -42.88378 35559 ft 454 kts 93°
2026-04-21 11:31 65.06642 -42.73416 35583 ft 450 kts 94°
2026-04-21 11:32 65.06411 -42.58696 35587 ft 447 kts 93°
2026-04-21 11:32 65.06167 -42.43998 35605 ft 445 kts 93°
2026-04-21 11:33 65.05907 -42.29381 35631 ft 449 kts 93°
2026-04-21 11:33 65.05623 -42.14322 35630 ft 462 kts 93°
2026-04-21 11:34 65.05332 -41.99264 35616 ft 457 kts 93°
2026-04-21 11:34 65.05026 -41.84273 35621 ft 452 kts 93°
2026-04-21 11:35 65.04697 -41.69176 35635 ft 467 kts 93°
2026-04-21 11:35 65.04352 -41.53862 35651 ft 462 kts 93°
2026-04-21 11:36 65.03997 -41.38807 35637 ft 458 kts 93°
2026-04-21 11:36 65.03629 -41.23879 35637 ft 453 kts 93°
2026-04-21 11:37 65.03239 -41.08745 35633 ft 463 kts 93°
2026-04-21 11:37 65.02838 -40.93647 35634 ft 458 kts 93°
2026-04-21 11:38 65.02423 -40.78673 35631 ft 453 kts 93°
2026-04-21 11:38 65.02001 -40.63987 35642 ft 453 kts 93°
2026-04-21 11:39 65.01549 -40.48757 35650 ft 462 kts 93°
2026-04-21 11:39 65.01089 -40.33734 35633 ft 457 kts 93°
2026-04-21 11:40 65.00614 -40.18744 35633 ft 456 kts 93°
2026-04-21 11:40 65.00134 -40.03986 35648 ft 452 kts 93°
2026-04-21 11:41 64.99377 -39.89161 35650 ft 461 kts 97°
2026-04-21 11:41 64.98341 -39.73895 35652 ft 478 kts 98°
2026-04-21 11:42 64.97278 -39.58238 35651 ft 489 kts 98°
2026-04-21 11:42 64.96224 -39.42446 35641 ft 489 kts 98°
2026-04-21 11:43 64.95149 -39.26510 35640 ft 489 kts 98°
2026-04-21 11:43 64.94055 -39.10645 35633 ft 488 kts 99°
2026-04-21 11:44 64.92949 -38.94917 35629 ft 487 kts 99°
2026-04-21 11:44 64.92015 -38.81818 35622 ft 487 kts 99°
2026-04-21 11:45 64.90905 -38.66316 35626 ft 474 kts 100°
2026-04-21 11:45 64.89784 -38.51055 35626 ft 467 kts 101°
2026-04-21 11:46 64.88686 -38.36193 35626 ft 461 kts 103°
2026-04-21 11:46 64.87570 -38.21410 35625 ft 457 kts 103°
2026-04-21 11:47 64.86446 -38.06830 35625 ft 453 kts 103°
2026-04-21 11:47 64.85298 -37.92106 35631 ft 451 kts 103°
2026-04-21 11:48 64.84165 -37.77724 35640 ft 448 kts 103°
2026-04-21 11:48 64.83023 -37.63380 35640 ft 447 kts 103°
2026-04-21 11:49 64.81870 -37.49048 35634 ft 445 kts 104°
2026-04-21 11:49 64.80711 -37.34877 35629 ft 443 kts 104°
2026-04-21 11:50 64.79534 -37.20676 35641 ft 441 kts 104°
2026-04-21 11:50 64.78353 -37.06581 35640 ft 441 kts 104°
2026-04-21 11:51 64.77160 -36.92506 35643 ft 440 kts 104°
2026-04-21 11:51 64.75950 -36.78408 35647 ft 440 kts 105°
2026-04-21 11:52 64.74734 -36.64399 35650 ft 439 kts 105°
2026-04-21 11:52 64.73503 -36.50387 35650 ft 439 kts 105°
2026-04-21 11:53 64.72261 -36.36414 35625 ft 438 kts 105°
2026-04-21 11:53 64.71018 -36.22588 35653 ft 438 kts 105°
2026-04-21 11:54 64.69753 -36.08670 35658 ft 438 kts 105°
2026-04-21 11:54 64.68465 -35.94653 35657 ft 438 kts 105°
2026-04-21 11:55 64.67173 -35.80754 35664 ft 438 kts 105°
2026-04-21 11:55 64.65866 -35.66841 35665 ft 438 kts 106°
2026-04-21 11:56 64.64542 -35.52910 35664 ft 439 kts 106°